This is the latest recevied weather packets stored in our database for station/object W8KVG. If no packets are shown the sender has not sent any weather packets the latest 10 day(s).
| Time | Temp. | Humidity | Pressure | Rain* | Wind** | Luminosity | Snow |
|---|---|---|---|---|---|---|---|
| 1778006666 | 22.22° C | 53% | 1007.6 hPa | 0 mm | - | 66 W/m² | - |
| 1778006362 | 22.22° C | 52% | 1007.6 hPa | 0 mm | - | 103 W/m² | - |
| 1778006059 | 22.78° C | 51% | 1007.6 hPa | 0 mm | - | 108 W/m² | - |
| 1778005756 | 23.33° C | 50% | 1007.5 hPa | 0 mm | - | 206 W/m² | - |
| 1778005453 | 23.33° C | 51% | 1007.6 hPa | 0 mm | - | 856 W/m² | - |
| 1778005149 | 23.33° C | 49% | 1007.6 hPa | 0 mm | - | 925 W/m² | - |
| 1778004847 | 23.33° C | 51% | 1007.6 hPa | 0 mm | - | 671 W/m² | - |
| 1778004543 | 23.33° C | 51% | 1007.6 hPa | 0 mm | - | 828 W/m² | - |
| 1778004240 | 22.78° C | 51% | 1007.7 hPa | 0 mm | - | 700 W/m² | - |
| 1778003936 | 23.33° C | 52% | 1007.8 hPa | 0 mm | - | 705 W/m² | - |
| 1778003633 | 21.67° C | 52% | 1008 hPa | 0 mm | - | 762 W/m² | - |
| 1778003329 | 21.11° C | 55% | 1007.8 hPa | 0 mm | - | 396 W/m² | - |
| 1778003027 | 20.56° C | 55% | 1007.7 hPa | 0 mm | - | 208 W/m² | - |
| 1778002723 | 20.56° C | 56% | 1007.8 hPa | 0 mm | - | 122 W/m² | - |
| 1778002420 | 20.56° C | 56% | 1008 hPa | 0 mm | - | 112 W/m² | - |
| 1778002117 | 21.11° C | 57% | 1007.7 hPa | 0 mm | - | 90 W/m² | - |
| 1778001815 | 21.11° C | 56% | 1007.6 hPa | 0 mm | - | 104 W/m² | - |
| 1778001514 | 21.67° C | 56% | 1007.4 hPa | 0 mm | - | 112 W/m² | - |
| 1778001211 | 22.22° C | 54% | 1007.3 hPa | 0 mm | - | 173 W/m² | - |
| 1778000908 | 22.22° C | 54% | 1007.1 hPa | 0 mm | - | 274 W/m² | - |
| 1778000604 | 22.78° C | 55% | 1007.2 hPa | 0 mm | - | 229 W/m² | - |
| 1778000300 | 22.78° C | 52% | 1007.1 hPa | 0 mm | - | 183 W/m² | - |
| 1777999996 | 22.78° C | 53% | 1006.9 hPa | 0 mm | - | 697 W/m² | - |
| 1777999691 | 22.78° C | 52% | 1007 hPa | 0 mm | - | 693 W/m² | - |
| 1777999389 | 22.78° C | 53% | 1006.9 hPa | 0 mm | - | 266 W/m² | - |
* Rain latest hour (hover to see other rain measurements)
** Current wind speed in m/s (hover to see current wind gust speed)